Station LTRM4 - 9076033 - Little Rapids, MI Image indicating link to RSS feed of recent meteorological observations for station LTRM4


Conditions at LTRM4 as of
(2:54 pm EDT)
1854 GMT on 04/16/2024:
     

Click on the graph icon in the table below to see a time series plot of the last five days of that observation.

5-day plot - Wind Direction Wind Direction (WDIR):SSE ( 160 deg true )
5-day plot - Wind Speed Wind Speed (WSPD): 7.0 kts
5-day plot - Wind Gust Wind Gust (GST): 9.9 kts
5-day plot - Atmospheric Pressure Atmospheric Pressure (PRES):30.15 in
5-day plot - Air Temperature Air Temperature (ATMP): 55.0 °F
5-day plot - Water Temperature Water Temperature (WTMP): 40.6 °F
5-day plot - Dew Point Dew Point (DEWP): 15.4 °F
5-day plot - Wind Speed at 10 Meters Wind Speed at 10 meters (WSPD10M): 7.8 kts
5-day plot - Wind Speed at 20 Meters Wind Speed at 20 meters (WSPD20M): 7.8 kts
5-day plot -  Wind Speed, Wind Gust and Atmospheric Pressure Combined plot of Wind Speed, Gust, and Air Pressure
NOS Water Level Observation Network Water Level
Previous observations
TIME
(EDT)
5-day plot - Wind Direction
WDIR
 
5-day plot - Wind Speed
WSPD
kts
5-day plot - Wind Gust
GST
kts
5-day plot - Wave Height
WVHT
ft
5-day plot - Dominant Wave Period
DPD
sec
5-day plot - Average Wave Period
APD
sec
5-day plot - Mean Wave Direction
MWD
 
5-day plot - Atmospheric Pressure
PRES
in
5-day plot - Pressure Tendency
PTDY
in
5-day plot - Air Temperature
ATMP
°F
5-day plot - Water Temperature
WTMP
°F
5-day plot - Dew Point
DEWP
°F
5-day plot - Salinity
SAL
psu
5-day plot - Visibility
VIS
nmi
5-day plot - Tide (above MLLW)
TIDE
ft
2024-04-16 02:48 pmSSW 6.0 8.0----30.16- 54.9 40.6 15.8---
2024-04-16 02:42 pmSSE 5.1 8.0----30.16- 54.7 40.6 18.0---
2024-04-16 02:36 pm S 6.0 8.9----30.16- 54.3 40.6 16.7---
2024-04-16 02:30 pm S 6.0 8.9----30.16- 54.0 40.6 18.0---
2024-04-16 02:24 pm S 6.0 8.9----30.16- 53.2 40.6 19.6---
2024-04-16 02:18 pm S 6.0 8.0----30.16- 53.4 40.6 18.3---
2024-04-16 02:12 pm S 4.1 6.0----30.16- 53.2 40.6 17.6---
2024-04-16 02:06 pmSSE 5.1 8.0----30.16- 52.7 40.6 17.8---
2024-04-16 02:00 pmSSE 8.0 9.9----30.16-0.04 52.7 40.6 17.1---
2024-04-16 01:54 pmSSE 6.0 8.9----30.17- 52.9 40.6 20.3---
2024-04-16 01:48 pmSSE 5.1 8.0----30.17- 53.2 40.6 18.5---
2024-04-16 01:42 pmSSE 6.0 7.0----30.18- 52.9 40.6 17.8---
2024-04-16 01:36 pmSSE 6.0 8.0----30.18- 52.2 40.6 16.9---
2024-04-16 01:30 pmSSE 7.0 8.0----30.19- 52.3 40.6 19.4---
2024-04-16 01:24 pmSSW 5.1 8.0----30.19- 52.9 40.6 20.1---
2024-04-16 01:18 pm S 6.0 7.0----30.19- 52.2 40.6 19.6---
2024-04-16 01:12 pmSSE 5.1 7.0----30.19- 51.8 40.6 21.0---
2024-04-16 01:06 pmSSE 5.1 7.0----30.19- 52.0 40.6 18.7---
2024-04-16 01:00 pm S 4.1 7.0----30.20-0.02 52.7 40.6 18.7---
2024-04-16 12:54 pm SE 4.1 7.0----30.20- 51.6 40.6 17.4---
2024-04-16 12:48 pm SE 6.0 7.0----30.20- 50.7 40.6 16.7---
2024-04-16 12:42 pmSSE 5.1 6.0----30.21- 51.1 40.5 13.6---
2024-04-16 12:36 pm SE 1.9 4.1----30.21- 51.8 40.6 15.3---
2024-04-16 12:30 pmSSE 1.9 4.1----30.21- 52.0 40.6 15.8---
2024-04-16 12:24 pmSSE 4.1 5.1----30.21- 51.1 40.5 16.3---
2024-04-16 12:18 pmESE 4.1 4.1----30.22- 50.2 40.6 16.0---
2024-04-16 12:12 pmSSE 4.1 7.0----30.22- 50.7 40.6 16.9---
2024-04-16 12:06 pmSSE 5.1 7.0----30.22- 50.4 40.6 21.0---
2024-04-16 12:00 pm S 5.1 8.0----30.22+0.01 50.9 40.5 19.0---
2024-04-16 11:54 am S 5.1 8.9----30.22- 50.4 40.5 17.6---
2024-04-16 11:48 am S 6.0 8.0----30.22- 50.4 40.5 16.5---
2024-04-16 11:42 amSSE 6.0 8.0----30.21- 50.0 40.6 21.4---
2024-04-16 11:36 amSSE 7.0 8.0----30.21- 49.8 40.6 19.6---
2024-04-16 11:30 amSSE 7.0 8.9----30.22- 49.8 40.6 21.2---
2024-04-16 11:24 amSSE 7.0 8.9----30.21- 49.1 40.6 21.4---
2024-04-16 11:18 am S 4.1 7.0----30.22- 49.8 40.6 21.7---
2024-04-16 11:12 am S 2.9 6.0----30.21- 49.8 40.6 23.4---
2024-04-16 11:06 amSSE 6.0 7.0----30.21- 48.7 40.5 22.1---
2024-04-16 11:00 am SE 2.9 4.1----30.20+0.01 48.7 40.5 24.3---
2024-04-16 10:54 am- 0.0 1.9----30.20- 49.6 40.5 24.6---
2024-04-16 10:48 am- 0.0 1.0----30.21- 49.8 40.5 24.1---
2024-04-16 10:42 am- 0.0 1.0----30.20- 50.0 40.5 25.7---
2024-04-16 10:36 am- 0.0 1.0----30.21- 48.7 40.5 25.2---
2024-04-16 10:30 am- 0.0 1.0----30.21- 47.5 40.5 25.5---
2024-04-16 10:24 am NE 1.0 2.9----30.21- 45.5 40.5 25.9---
2024-04-16 10:18 am NE 1.9 1.9----30.21- 45.3 40.5 24.8---
2024-04-16 10:12 am NE 2.9 4.1----30.21- 44.2 40.5 24.6---
2024-04-16 10:06 am NE 2.9 2.9----30.21- 43.7 40.5 26.1---
2024-04-16 10:00 am E 1.9 2.9----30.22+0.06 43.9 40.5 24.6---
2024-04-16 09:54 amENE 2.9 5.1----30.22- 43.3 40.5 25.0---
2024-04-16 09:48 amENE 5.1 6.0----30.22- 42.8 40.5 25.5---
2024-04-16 09:42 amENE 6.0 7.0----30.21- 42.3 40.5 25.7---
2024-04-16 09:36 amENE 7.0 8.0----30.21- 41.9 40.5 25.2---
2024-04-16 09:30 am NE 6.0 7.0----30.21- 41.5 40.5 25.3---
2024-04-16 09:24 amENE 4.1 5.1----30.22- 40.5 40.5 27.3---
2024-04-16 09:18 am NE 1.9 2.9----30.21- 39.7 40.5 27.7---
2024-04-16 09:12 am NE 1.9 2.9----30.21- 39.0 40.5 27.7---
2024-04-16 09:06 amNNE 1.9 2.9----30.21- 38.1 40.5 28.2---
2024-04-16 09:00 am N 1.0 1.9----30.21+0.05 37.9 40.5 28.6---
2024-04-16 08:54 am- 0.0 1.9----30.20- 37.9 40.5 28.9---
2024-04-16 08:48 am NE 1.0 2.9----30.19- 36.9 40.5 28.9---
2024-04-16 08:42 am NE 1.9 2.9----30.19- 36.1 40.5 28.9---
2024-04-16 08:36 amENE 2.9 4.1----30.18- 35.6 40.5 29.1---
2024-04-16 08:30 am NE 4.1 4.1----30.18- 35.2 40.5 28.8---
2024-04-16 08:24 amNNE 1.9 2.9----30.19- 35.6 40.5 29.5---
2024-04-16 08:18 amNNE 1.9 2.9----30.19- 35.6 40.5 30.0---
2024-04-16 08:12 am NE 1.0 1.9----30.19- 35.1 40.5 30.0---
2024-04-16 08:06 amNNE 1.0 2.9----30.19- 34.7 40.5 29.7---
2024-04-16 08:00 am N 1.9 2.9----30.19+0.05 34.0 40.5 30.2---
2024-04-16 07:54 am N 1.9 2.9----30.19- 34.0 40.5 30.9---
2024-04-16 07:48 am N 2.9 2.9----30.18- 33.8 40.5 30.9---
2024-04-16 07:42 am N 1.9 2.9----30.17- 33.3 40.5 30.2---
2024-04-16 07:36 amNNW 1.0 1.9----30.17- 33.3 40.5 31.1---
2024-04-16 07:30 amNNE 2.9 2.9----30.17- 33.1 40.5 30.6---
2024-04-16 07:24 am NE 2.9 4.1----30.17- 32.7 40.5 30.4---
2024-04-16 07:18 am NE 4.1 4.1----30.16- 32.5 40.5 30.0---
2024-04-16 07:12 am NE 2.9 4.1----30.16- 32.5 40.5 29.7---
2024-04-16 07:06 amNNE 2.9 4.1----30.16- 32.7 40.5 29.5---
2024-04-16 07:00 am NE 1.9 2.9----30.16+0.04 32.7 40.5 29.5---
2024-04-16 06:54 am NE 1.9 2.9----30.16- 32.5 40.5 29.7---
2024-04-16 06:48 am NE 2.9 5.1----30.16- 32.5 40.5 30.0---
2024-04-16 06:42 am NE 4.1 5.1----30.16- 32.5 40.5 30.4---
2024-04-16 06:36 amENE 4.1 6.0----30.16- 32.5 40.5 30.7---
2024-04-16 06:30 am NE 6.0 6.0----30.16- 32.5 40.5 30.7---
2024-04-16 06:24 amENE 4.1 5.1----30.16- 33.1 40.5 31.5---
2024-04-16 06:18 amENE 1.9 2.9----30.16- 32.9 40.5 31.3---
2024-04-16 06:12 am E 1.9 1.9----30.16- 32.7 40.5 30.7---
2024-04-16 06:06 am E 1.0 1.9----30.16- 32.0 40.5 30.2---
2024-04-16 06:00 am- 0.0 0.0----30.16+0.04 31.6 40.5 29.7---
2024-04-16 05:54 am- 0.0 1.0----30.16- 31.5 40.5 29.5---
2024-04-16 05:48 am- 0.0 1.9----30.16- 31.8 40.5 29.7---
2024-04-16 05:42 am NW 1.9 2.9----30.15- 31.6 40.5 29.5---
2024-04-16 05:36 am NW 2.9 4.1----30.15- 32.4 40.5 30.2---
2024-04-16 05:30 amWNW 2.9 4.1----30.15- 32.5 40.5 30.2---
2024-04-16 05:24 amWNW 2.9 4.1----30.15- 32.9 40.5 30.6---
2024-04-16 05:18 am NW 2.9 4.1----30.14- 32.4 40.5 29.8---
2024-04-16 05:12 amWNW 1.9 2.9----30.14- 32.7 40.5 30.9---
2024-04-16 05:06 am NW 1.9 4.1----30.14- 32.4 40.5 30.4---
2024-04-16 05:00 amNNW 1.0 1.9----30.14+0.04 33.1 40.5 30.9---
2024-04-16 04:54 amNNW 1.9 1.9----30.14- 32.7 40.5 31.1---
2024-04-16 04:48 am N 1.9 1.9----30.13- 33.4 40.5 31.3---
2024-04-16 04:42 am NW 1.9 1.9----30.13- 31.5 40.5 29.3---
2024-04-16 04:36 am N 1.0 1.9----30.13- 33.1 40.5 30.4---
2024-04-16 04:30 am- 0.0 1.9----30.13- 32.2 40.5 30.7---
2024-04-16 04:24 amNNW 1.9 2.9----30.13- 33.4 40.5 31.8---
2024-04-16 04:18 am W 1.9 2.9----30.13- 31.5 40.5 29.5---
2024-04-16 04:12 am W 1.9 1.9----30.13- 31.6 40.5 29.8---
2024-04-16 04:06 am SW 1.9 2.9----30.12- 30.4 40.5 28.9---
2024-04-16 04:00 am SW 2.9 2.9----30.12+0.05 30.7 40.5 28.6---
2024-04-16 03:54 am- 0.0 1.0----30.12- 31.6 40.5 28.9---
2024-04-16 03:48 am- 0.0 1.0----30.11- 33.4 40.5 31.1---
2024-04-16 03:42 am- 0.0 1.0----30.11- 34.3 40.5 32.0---
2024-04-16 03:36 am NE 1.0 1.9----30.11- 34.0 40.5 31.5---
2024-04-16 03:30 am- 0.0 1.9----30.11- 33.3 40.5 30.7---
2024-04-16 03:24 am SW 1.9 4.1----30.11- 32.7 40.5 30.6---
2024-04-16 03:18 amSSW 4.1 4.1----30.12- 32.4 40.5 29.8---
2024-04-16 03:12 am S 1.0 1.9----30.11- 33.1 40.5 30.7---
2024-04-16 03:06 am- 0.0 1.9----30.11- 33.3 40.5 31.5---
2024-04-16 03:00 am S 2.9 5.1----30.11+0.05 33.3 40.5 30.7---
2024-04-16 02:54 am S 1.9 4.1----30.11- 33.1 40.5 29.8---
2024-04-16 02:48 am- 0.0 0.0----30.11- 33.6 40.5 29.8---
2024-04-16 02:42 am- 0.0 1.0----30.11- 35.4 40.5 32.4---
2024-04-16 02:36 am- 0.0 1.9----30.11- 35.4 40.5 31.6---
2024-04-16 02:30 am- 0.0 1.9----30.10- 36.5 40.5 30.9---
2024-04-16 02:24 am W 1.9 4.1----30.10- 37.2 40.5 31.6---
2024-04-16 02:18 am W 2.9 4.1----30.10- 37.2 40.5 31.6---
2024-04-16 02:12 amWSW 4.1 4.1----30.10- 37.0 40.5 32.2---
2024-04-16 02:06 amWSW 2.9 4.1----30.10- 35.4 40.5 31.3---
2024-04-16 02:00 amSSW 1.9 1.9----30.10+0.04 34.5 40.5 30.7---
2024-04-16 01:54 amSSW 1.0 1.9----30.09- 34.5 40.5 30.6---
2024-04-16 01:48 am SW 1.9 2.9----30.09- 34.7 40.5 30.9---
2024-04-16 01:42 amSSW 1.9 2.9----30.09- 35.1 40.5 31.5---
2024-04-16 01:36 am S 2.9 4.1----30.09- 34.9 40.5 30.9---
2024-04-16 01:30 am S 2.9 2.9----30.09- 35.4 40.5 30.9---
2024-04-16 01:24 am- 0.0 1.9----30.08- 36.5 40.5 31.3---
2024-04-16 01:18 am- 0.0 1.9----30.08- 37.2 40.5 32.5---
2024-04-16 01:12 am S 1.9 4.1----30.08- 36.9 40.5 32.2---
2024-04-16 01:06 am S 4.1 4.1----30.08- 37.2 40.5 31.5---
2024-04-16 01:00 amNNW 2.9 5.1----30.07+0.02 39.7 40.5 33.8---
2024-04-16 12:54 am N 4.1 5.1----30.07- 39.7 40.5 34.0---
2024-04-16 12:48 amNNW 5.1 6.0----30.06- 40.5 40.5 33.4---
2024-04-16 12:42 amNNW 6.0 7.0----30.07- 40.3 40.5 33.6---
2024-04-16 12:36 amNNW 7.0 8.0----30.06- 40.5 40.5 33.3---
2024-04-16 12:30 amNNW 8.0 8.0----30.06- 40.5 40.5 33.4---
2024-04-16 12:24 amNNW 7.0 8.9----30.06- 40.3 40.5 34.0---
2024-04-16 12:18 amNNW 7.0 9.9----30.06- 40.5 40.5 33.6---
2024-04-16 12:12 amNNW 8.9 9.9----30.06- 41.2 40.5 32.4---
2024-04-16 12:06 amNNW 8.9 9.9----30.06- 41.2 40.5 32.4---
2024-04-16 12:00 amNNW 7.0 8.9----30.06+0.01 40.8 40.5 32.7---
2024-04-15 11:54 pmNNW 8.0 11.1----30.06- 41.0 40.5 32.7---
2024-04-15 11:48 pmNNW 7.0 8.9----30.06- 41.2 40.5 33.1---
2024-04-15 11:42 pmNNW 8.0 8.9----30.06- 41.2 40.5 32.7---
2024-04-15 11:36 pm NW 7.0 8.0----30.06- 40.6 40.5 32.4---
2024-04-15 11:30 pm NW 6.0 8.0----30.06- 40.6 40.5 32.2---
2024-04-15 11:24 pm NW 6.0 8.0----30.06- 40.6 40.5 32.0---
2024-04-15 11:18 pm NW 7.0 8.9----30.06- 41.0 40.5 31.3---
2024-04-15 11:12 pm NW 6.0 8.0----30.06- 41.2 40.5 32.0---
2024-04-15 11:06 pm NW 4.1 6.0----30.06- 41.0 40.5 32.0---
2024-04-15 11:00 pm NW 5.1 7.0----30.06+0.03 41.2 40.5 32.0---
2024-04-15 10:54 pm NW 5.1 7.0----30.05- 41.4 40.5 32.2---
2024-04-15 10:48 pm NW 6.0 8.0----30.06- 41.2 40.5 32.4---
2024-04-15 10:42 pm NW 4.1 5.1----30.06- 41.4 40.5 31.8---
2024-04-15 10:36 pm NW 5.1 6.0----30.06- 41.4 40.5 31.8---
2024-04-15 10:30 pmWNW 4.1 6.0----30.06-- 40.5----
2024-04-15 10:24 pm W 4.1 5.1----30.06-- 40.5----
2024-04-15 10:18 pmWNW 4.1 5.1----30.06- 41.5 40.5 31.8---
2024-04-15 10:12 pmWNW 2.9 6.0----30.06- 41.4 40.5 31.8---
2024-04-15 10:06 pm W 2.9 8.9----30.06- 41.2 40.5 32.0---
2024-04-15 10:00 pm W 7.0 8.9----30.06+0.04 41.7 40.5 31.8---
2024-04-15 09:54 pmWNW 7.0 11.1----30.05- 41.7 40.5 32.0---
2024-04-15 09:48 pmWNW 8.0 11.1----30.05- 41.7 40.5 32.0---
2024-04-15 09:42 pmWNW 6.0 8.9----30.05- 41.4 40.5 32.0---
2024-04-15 09:36 pmWNW 6.0 8.9----30.06- 41.5 40.5 32.2---
2024-04-15 09:30 pmWNW 6.0 8.9----30.05- 41.5 40.5 32.2---
2024-04-15 09:24 pmWNW 6.0 8.0----30.06- 41.5 40.5 32.0---
2024-04-15 09:18 pmWNW 5.1 8.0----30.06- 41.5 40.5 32.0---
2024-04-15 09:12 pmWNW 5.1 8.9----30.05- 41.4 40.5 32.0---
2024-04-15 09:06 pmWNW 6.0 9.9----30.05- 41.7 40.5 32.4---
2024-04-15 09:00 pmWNW 8.0 13.0----30.05+0.05- 40.5----
2024-04-15 08:54 pmWNW 9.9 13.0----30.05-- 40.5----
2024-04-15 08:48 pmWNW 11.1 14.0----30.04- 42.3 40.5 32.7---
2024-04-15 08:42 pmWNW 7.0 9.9----30.04- 42.6 40.5 32.4---
2024-04-15 08:36 pmWNW 6.0 8.9----30.04- 42.8 40.5 32.4---
2024-04-15 08:30 pm NW 5.1 8.0----30.04- 43.0 40.5 32.5---
2024-04-15 08:24 pm NW 7.0 9.9----30.03- 43.3 40.5 32.2---
2024-04-15 08:18 pmNNW 6.0 12.0----30.03-- 40.5----
2024-04-15 08:12 pm NW 9.9 15.0----30.03-- 40.5----
2024-04-15 08:06 pm NW 9.9 14.0----30.03-- 40.5----
2024-04-15 08:00 pm NW 11.1 15.0----30.02+0.05 43.7 40.5 32.9---
2024-04-15 07:54 pm NW 13.0 17.1----30.02- 43.9 40.5 32.5---
2024-04-15 07:48 pm NW 13.0 17.1----30.02- 43.9 40.5 32.4---
2024-04-15 07:42 pm NW 11.1 17.1----30.02- 44.4 40.5 32.5---
2024-04-15 07:36 pmWNW 13.0 19.0----30.02- 44.8 40.5 32.0---
2024-04-15 07:30 pm NW 14.0 22.0----30.02- 44.8 40.5 32.2---
2024-04-15 07:24 pm NW 12.0 15.9----30.02- 45.1 40.5 32.2---
2024-04-15 07:18 pm NW 9.9 14.0----30.02- 45.5 40.5 32.2---
2024-04-15 07:12 pmWNW 8.9 15.9----30.02- 45.7 40.5 32.0---
2024-04-15 07:06 pm NW 9.9 15.0----30.02- 45.7 40.5 32.0---
2024-04-15 07:00 pmWNW 12.0 17.1----30.02+0.07 45.7 40.5 31.6---
2024-04-15 06:54 pm NW 13.0 17.1----30.02- 45.7 40.5 31.5---
2024-04-15 06:48 pm NW 11.1 17.1----30.02- 45.9 40.5 31.8---
2024-04-15 06:42 pm NW 11.1 18.1----30.02- 45.9 40.5 30.9---
2024-04-15 06:36 pm NW 12.0 18.1----30.01- 46.0 40.5 30.4---
2024-04-15 06:30 pm NW 12.0 18.1----30.01-- 40.5----
2024-04-15 06:24 pm NW 14.0 19.0----30.01-- 40.5----
2024-04-15 06:18 pm NW 14.0 20.0----30.01- 46.8 40.5 29.8---
2024-04-15 06:12 pm NW 15.9 19.0----30.01- 46.8 40.5 29.7---
2024-04-15 06:06 pm NW 15.0 20.0----30.01- 47.3 40.5 30.6---
2024-04-15 06:00 pm NW 13.0 22.0----30.00+0.06 47.1 40.5 30.0---
2024-04-15 05:54 pm NW 15.9 24.1----30.00- 47.5 40.5 30.2---
2024-04-15 05:48 pm NW 14.0 20.0----29.99- 47.8 40.5 31.8---
2024-04-15 05:42 pm NW 15.9 22.0----29.99- 47.7 40.5 32.0---
2024-04-15 05:36 pm NW 11.1 22.0----29.99- 47.7 40.5 33.3---
2024-04-15 05:30 pm NW 15.9 22.9----29.99- 48.0 40.5 32.7---
2024-04-15 05:24 pm NW 17.1 24.1----29.98- 48.0 40.5 32.5---
2024-04-15 05:18 pm NW 18.1 22.9------ 48.2 40.5 32.2---
2024-04-15 05:12 pm NW 18.1 24.1------ 48.6 40.5 32.7---
2024-04-15 05:06 pm NW 18.1 24.1------ 48.9 40.5 32.7---
2024-04-15 05:00 pm NW 17.1 21.0----29.97+0.05 48.9 40.5 32.7---
2024-04-15 04:54 pm NW 18.1 22.9----29.97- 48.7 40.5 33.4---
2024-04-15 04:48 pm NW 17.1 24.1----29.97- 48.7 40.5 32.4---
2024-04-15 04:42 pm NW 18.1 24.1----29.96- 49.5 40.5 32.7---
2024-04-15 04:36 pm NW 18.1 22.0----29.96- 49.5 40.5 32.2---
2024-04-15 04:30 pm NW 15.0 22.9----29.96- 50.0 40.5 32.7---
2024-04-15 04:24 pm NW 14.0 22.9----29.95- 50.2 40.5 32.9---
2024-04-15 04:18 pm NW 14.0 22.9----29.95- 50.0 40.5 32.7---
2024-04-15 04:12 pm NW 17.1 22.0----29.95- 50.4 40.5 32.9---
2024-04-15 04:06 pm NW 15.9 20.0----29.95- 50.9 40.5 33.4---
2024-04-15 04:00 pm NW 13.0 21.0----29.95+0.05 50.7 40.5 34.2---
2024-04-15 03:54 pm NW 15.9 18.1----29.95- 51.1 40.5 33.6---
2024-04-15 03:48 pm NW 17.1 19.0----29.94- 50.9 40.5 33.8---
2024-04-15 03:42 pm NW 15.9 20.0----29.94- 52.3 40.5 33.8---
2024-04-15 03:36 pmWNW 15.9 21.0----29.94- 52.0 40.5 33.6---
2024-04-15 03:30 pm NW 14.0 19.0----29.94- 51.4 40.5 34.2---
2024-04-15 03:24 pm NW 14.0 18.1----29.94- 51.8 40.5 34.3---
2024-04-15 03:18 pm NW 13.0 20.0----29.94- 52.3 40.5 34.5---
2024-04-15 03:12 pm NW 14.0 20.0----29.94- 51.4 40.5 33.6---
2024-04-15 03:06 pm NW 13.0 18.1----29.94- 52.2 40.5 34.0---
2024-04-15 03:00 pm NW 13.0 19.0----29.94+0.05 52.3 40.5 34.3---
2024-04-15 02:54 pm NW 15.0 19.0----29.94- 52.5 40.5 34.0---